| time (UTC) | temp F | wind direction | speed knots | gust knots | rain 1hr in | rain 24hr in | rain mn in | humidity % | barometer mb |
| 20260510180528 | 95 | 250 | 4.3 | 11.3 | 0.00 | 0.00 | 0.00 | 49 | 1015.4 |
| 20260510175042 | 95 | 298 | 2.6 | 10.4 | 0.00 | 0.00 | 0.00 | 48 | 1015.6 |
| 20260510174042 | 94 | 201 | 3.5 | 9.6 | 0.00 | 0.00 | 0.00 | 49 | 1015.7 |
| 20260510173043 | 95 | 196 | 3.5 | 8.7 | 0.00 | 0.00 | 0.00 | 50 | 1015.9 |
| 20260510172519 | 94 | 254 | 2.6 | 7.8 | 0.00 | 0.00 | 0.00 | 50 | 1015.9 |
| 20260510171513 | 94 | 277 | 4.3 | 9.6 | 0.00 | 0.00 | 0.00 | 49 | 1016.0 |
| 20260510170511 | 91 | 223 | 3.5 | 9.6 | 0.00 | 0.00 | 0.00 | 52 | 1016.2 |
| 20260510165035 | 92 | 231 | 4.3 | 9.6 | 0.00 | 0.00 | 0.00 | 52 | 1016.4 |
| 20260510164523 | 91 | 271 | 3.5 | 9.6 | 0.00 | 0.00 | 0.00 | 53 | 1016.4 |
| 20260510163035 | 91 | 221 | 4.3 | 8.7 | 0.00 | 0.00 | 0.00 | 52 | 1016.6 |
| 20260510162033 | 92 | 237 | 4.3 | 8.7 | 0.00 | 0.00 | 0.00 | 52 | 1016.6 |
| 20260510161031 | 92 | 244 | 3.5 | 9.6 | 0.00 | 0.00 | 0.00 | 52 | 1016.6 |
| 20260510160033 | 91 | 235 | 4.3 | 12.2 | 0.00 | 0.00 | 0.00 | 51 | 1016.7 |
| 20260510155030 | 91 | 188 | 4.3 | 9.6 | 0.00 | 0.00 | 0.00 | 52 | 1016.6 |
| 20260510154029 | 90 | 163 | 4.3 | 9.6 | 0.00 | 0.00 | 0.00 | 51 | 1016.7 |
| 20260510153031 | 89 | 242 | 4.3 | 9.6 | 0.00 | 0.00 | 0.00 | 53 | 1016.7 |
| 20260510152031 | 89 | 239 | 4.3 | 9.6 | 0.00 | 0.00 | 0.00 | 57 | 1016.8 |
| 20260510151027 | 89 | 221 | 4.3 | 7.8 | 0.00 | 0.00 | 0.00 | 58 | 1016.8 |
| 20260510150027 | 87 | 243 | 3.5 | 10.4 | 0.00 | 0.00 | 0.00 | 61 | 1016.6 |
| 20260510145023 | 86 | 236 | 3.5 | 7.8 | 0.00 | 0.00 | 0.00 | 67 | 1016.6 |
| 20260510144018 | 85 | 244 | 3.5 | 7.8 | 0.00 | 0.00 | 0.00 | 72 | 1016.5 |
| 20260510143013 | 85 | 231 | 3.5 | 8.7 | 0.00 | 0.00 | 0.00 | 73 | 1016.6 |
| 20260510142009 | 84 | 189 | 2.6 | 7.8 | 0.00 | 0.00 | 0.00 | 75 | 1016.5 |
| 20260510141008 | 84 | 185 | 2.6 | 6.1 | 0.00 | 0.00 | 0.00 | 76 | 1016.5 |
| 20260510140008 | 83 | 224 | 2.6 | 5.2 | 0.00 | 0.00 | 0.00 | 79 | 1016.6 |
| 20260510135008 | 82 | 183 | 2.6 | 5.2 | 0.00 | 0.00 | 0.00 | 80 | 1016.6 |
| 20260510134008 | 81 | 199 | 2.6 | 5.2 | 0.00 | 0.00 | 0.00 | 81 | 1016.5 |
| 20260510133005 | 80 | 239 | 1.7 | 6.1 | 0.00 | 0.00 | 0.00 | 84 | 1016.4 |
| 20260510132447 | 79 | 229 | 1.7 | 3.5 | 0.00 | 0.00 | 0.00 | 85 | 1016.4 |
| 20260510131006 | 79 | 252 | 1.7 | 3.5 | 0.00 | 0.00 | 0.00 | 86 | 1016.3 |
| 20260510130454 | 78 | 317 | 0.0 | 1.7 | 0.00 | 0.00 | 0.00 | 88 | 1016.4 |
| 20260510125436 | 77 | 318 | 0.0 | 0.9 | 0.00 | 0.00 | 0.00 | 90 | 1016.3 |
| 20260510123958 | 77 | 318 | 0.0 | 0.9 | 0.00 | 0.00 | 0.00 | 91 | 1016.3 |
| 20260510122953 | 76 | 317 | 0.0 | 0.0 | 0.00 | 0.00 | 0.00 | 92 | 1016.2 |
| 20260510121945 | 75 | 318 | 0.0 | 0.0 | 0.00 | 0.00 | 0.00 | 93 | 1016.1 |
| 20260510120948 | 75 | 318 | 0.0 | 0.0 | 0.00 | 0.00 | 0.00 | 93 | 1015.9 |
| 20260510115942 | 75 | 321 | 0.0 | 0.0 | 0.00 | 0.00 | 0.00 | 94 | 1015.9 |
| 20260510114940 | 74 | 321 | 0.0 | 0.9 | 0.00 | 0.00 | 0.00 | 94 | 1015.8 |
| 20260510113935 | 74 | 320 | 0.9 | 1.7 | 0.00 | 0.00 | 0.00 | 94 | 1015.6 |
| 20260510112934 | 73 | 321 | 1.7 | 4.3 | 0.00 | 0.00 | 0.00 | 94 | 1015.3 |
| 20260510112420 | 73 | 254 | 0.9 | 2.6 | 0.00 | 0.00 | 0.00 | 94 | 1015.0 |
| 20260510110931 | 73 | 186 | 0.0 | 0.9 | 0.00 | 0.00 | 0.00 | 94 | 1014.7 |
| 20260510105922 | 73 | 187 | 1.7 | 4.3 | 0.00 | 0.00 | 0.00 | 94 | 1014.4 |
| 20260510104915 | 73 | 175 | 0.0 | 0.9 | 0.00 | 0.00 | 0.00 | 94 | 1014.4 |
| 20260510104835 | 73 | 174 | 0.0 | 1.7 | 0.00 | 0.00 | 0.00 | 94 | 1014.2 |
| 20260510103355 | 73 | 175 | 0.9 | 3.5 | 0.00 | 0.00 | 0.00 | 94 | 1013.8 |
| 20260510101915 | 73 | 174 | 0.0 | 0.0 | 0.00 | 0.00 | 0.00 | 94 | 1013.8 |
| 20260510101837 | 73 | 175 | 0.0 | 0.9 | 0.00 | 0.00 | 0.00 | 93 | 1013.8 |
| 20260510100833 | 73 | 175 | 0.0 | 0.0 | 0.00 | 0.00 | 0.00 | 93 | 1013.8 |
| 20260510094905 | 74 | 175 | 0.0 | 0.0 | 0.00 | 0.00 | 0.00 | 94 | 1013.7 |
| 20260510093906 | 74 | 175 | 0.0 | 0.0 | 0.00 | 0.00 | 0.00 | 93 | 1013.6 |
| 20260510092905 | 74 | 175 | 0.0 | 0.0 | 0.00 | 0.00 | 0.00 | 93 | 1013.6 |
| 20260510091906 | 74 | 175 | 0.9 | 3.5 | 0.00 | 0.00 | 0.00 | 94 | 1013.6 |
| 20260510090906 | 74 | 175 | 0.9 | 3.5 | 0.00 | 0.00 | 0.00 | 93 | 1013.5 |
| 20260510085858 | 74 | 175 | 0.9 | 3.5 | 0.00 | 0.00 | 0.00 | 93 | 1013.4 |
| 20260510084855 | 74 | 175 | 0.0 | 1.7 | 0.00 | 0.00 | 0.00 | 93 | 1013.4 |
| 20260510083855 | 74 | 175 | 0.9 | 4.3 | 0.00 | 0.00 | 0.00 | 93 | 1013.6 |
| 20260510082855 | 74 | 175 | 1.7 | 4.3 | 0.00 | 0.00 | 0.00 | 93 | 1013.6 |
| 20260510082353 | 73 | 151 | 1.7 | 2.6 | 0.00 | 0.00 | 0.00 | 93 | 1013.6 |
| 20260510080840 | 72 | 38 | 0.0 | 2.6 | 0.00 | 0.00 | 0.00 | 92 | 1013.7 |
| 20260510075840 | 72 | 38 | 0.0 | 0.9 | 0.00 | 0.00 | 0.00 | 92 | 1013.9 |
| 20260510074841 | 73 | 38 | 0.0 | 0.0 | 0.00 | 0.00 | 0.00 | 91 | 1014.1 |
| 20260510073842 | 73 | 38 | 0.0 | 0.0 | 0.00 | 0.00 | 0.00 | 91 | 1014.0 |
| 20260510072841 | 73 | 38 | 0.0 | 0.0 | 0.00 | 0.00 | 0.00 | 91 | 1014.0 |
| 20260510071838 | 73 | 38 | 0.0 | 1.7 | 0.00 | 0.00 | 0.00 | 90 | 1014.0 |
| 20260510070835 | 74 | 38 | 0.0 | 0.0 | 0.00 | 0.00 | 0.00 | 90 | 1014.0 |
| 20260510065838 | 74 | 38 | 0.0 | 0.9 | 0.00 | 0.00 | 0.00 | 90 | 1014.0 |
| 20260510064834 | 74 | 38 | 0.0 | 0.9 | 0.00 | 0.00 | 0.00 | 90 | 1014.0 |
| 20260510063835 | 74 | 38 | 0.0 | 0.9 | 0.00 | 0.00 | 0.00 | 89 | 1014.0 |
| 20260510062827 | 74 | 38 | 0.0 | 0.9 | 0.00 | 0.00 | 0.00 | 89 | 1014.1 |
| 20260510061826 | 74 | 38 | 0.0 | 0.0 | 0.00 | 0.00 | 0.00 | 89 | 1014.2 |
| 20260510060827 | 74 | 38 | 0.0 | 1.7 | 0.00 | 0.00 | 0.00 | 89 | 1014.4 |
| 20260510055826 | 74 | 38 | 0.0 | 0.0 | 0.00 | 0.00 | 0.00 | 90 | 1014.5 |
| 20260510054826 | 74 | 38 | 0.0 | 0.0 | 0.00 | 0.00 | 0.00 | 89 | 1014.7 |
| 20260510053828 | 74 | 38 | 0.0 | 0.0 | 0.00 | 0.00 | 0.00 | 89 | 1014.7 |
| 20260510052826 | 74 | 38 | 0.0 | 0.0 | 0.00 | 0.00 | 0.00 | 89 | 1014.7 |
| 20260510051815 | 75 | 38 | 0.0 | 0.9 | 0.00 | 0.00 | 0.00 | 88 | 1014.6 |
| 20260510050814 | 75 | 38 | 0.0 | 0.9 | 0.00 | 0.00 | 0.00 | 87 | 1014.8 |
| 20260510045816 | 75 | 38 | 0.0 | 0.0 | 0.00 | 0.00 | 0.00 | 88 | 1014.9 |
| 20260510044814 | 75 | 38 | 0.0 | 0.0 | 0.00 | 0.00 | 0.00 | 87 | 1015.0 |
| 20260510043813 | 76 | 38 | 0.0 | 0.0 | 0.00 | 0.00 | 0.00 | 87 | 1014.9 |
| 20260510042812 | 76 | 38 | 0.0 | 0.9 | 0.00 | 0.00 | 0.00 | 85 | 1015.1 |
| 20260510041811 | 77 | 38 | 1.7 | 3.5 | 0.00 | 0.00 | 0.00 | 85 | 1015.0 |
| 20260510040812 | 77 | 27 | 0.9 | 2.6 | 0.00 | 0.00 | 0.00 | 84 | 1015.1 |
| 20260510035812 | 76 | 27 | 0.0 | 0.9 | 0.00 | 0.00 | 0.00 | 86 | 1015.1 |
| 20260510034815 | 76 | 27 | 0.0 | 0.9 | 0.00 | 0.00 | 0.00 | 85 | 1015.2 |
| 20260510033804 | 76 | 27 | 0.0 | 0.0 | 0.00 | 0.00 | 0.00 | 85 | 1015.0 |
| 20260510032802 | 77 | 27 | 0.0 | 0.0 | 0.00 | 0.00 | 0.00 | 83 | 1015.1 |
| 20260510031805 | 78 | 27 | 0.9 | 1.7 | 0.00 | 0.00 | 0.00 | 83 | 1015.0 |
| 20260510030802 | 78 | 27 | 0.9 | 2.6 | 0.00 | 0.00 | 0.00 | 82 | 1015.0 |
| 20260510025803 | 78 | 27 | 1.7 | 2.6 | 0.00 | 0.00 | 0.00 | 81 | 1015.0 |
| 20260510024753 | 79 | 23 | 1.7 | 2.6 | 0.00 | 0.00 | 0.00 | 81 | 1014.9 |
| 20260510023752 | 79 | 23 | 0.9 | 2.6 | 0.00 | 0.00 | 0.00 | 80 | 1014.8 |
| 20260510022753 | 79 | 23 | 0.9 | 3.5 | 0.00 | 0.00 | 0.00 | 80 | 1014.7 |
| 20260510021754 | 80 | 23 | 2.6 | 5.2 | 0.00 | 0.00 | 0.00 | 79 | 1014.6 |
| 20260510020751 | 80 | 15 | 2.6 | 4.3 | 0.00 | 0.00 | 0.00 | 78 | 1014.6 |
| 20260510015751 | 80 | 10 | 3.5 | 7.0 | 0.00 | 0.00 | 0.00 | 77 | 1014.5 |
| 20260510015229 | 81 | 22 | 3.5 | 8.7 | 0.00 | 0.00 | 0.00 | 76 | 1014.4 |
| 20260510013749 | 81 | 15 | 5.2 | 10.4 | 0.00 | 0.00 | 0.00 | 76 | 1014.2 |
| 20260510012752 | 82 | 337 | 4.3 | 9.6 | 0.00 | 0.00 | 0.00 | 75 | 1014.1 |
| 20260510011734 | 83 | 23 | 4.3 | 8.7 | 0.00 | 0.00 | 0.00 | 74 | 1013.8 |
| 20260510011218 | 83 | 20 | 6.1 | 13.0 | 0.00 | 0.00 | 0.00 | 73 | 1013.6 |
| 20260510010214 | 83 | 23 | 6.1 | 10.4 | 0.00 | 0.00 | 0.00 | 72 | 1013.3 |
| 20260510004736 | 84 | 334 | 6.1 | 13.0 | 0.00 | 0.00 | 0.00 | 69 | 1013.1 |
| 20260510003730 | 85 | 37 | 4.3 | 12.2 | 0.00 | 0.00 | 0.00 | 65 | 1012.9 |
| 20260510003211 | 86 | 321 | 1.7 | 3.5 | 0.00 | 0.00 | 0.00 | 60 | 1012.7 |
| 20260510001729 | 86 | 305 | 0.9 | 3.5 | 0.00 | 0.00 | 0.00 | 60 | 1012.5 |
| 20260510000728 | 87 | 308 | 2.6 | 7.8 | 0.00 | 0.00 | 0.00 | 58 | 1012.2 |
| 20260509235729 | 87 | 309 | 3.5 | 8.7 | 0.00 | 0.00 | 0.00 | 57 | 1012.1 |
| 20260509234729 | 88 | 300 | 3.5 | 7.0 | 0.00 | 0.00 | 0.00 | 56 | 1011.9 |
| 20260509233729 | 89 | 309 | 4.3 | 9.6 | 0.00 | 0.00 | 0.00 | 55 | 1011.8 |
| 20260509232725 | 90 | 310 | 4.3 | 11.3 | 0.00 | 0.00 | 0.00 | 53 | 1011.6 |
| 20260509231725 | 91 | 274 | 4.3 | 10.4 | 0.00 | 0.00 | 0.00 | 52 | 1011.5 |
| 20260509230709 | 92 | 282 | 5.2 | 12.2 | 0.00 | 0.00 | 0.00 | 50 | 1011.4 |
| 20260509225710 | 92 | 275 | 4.3 | 9.6 | 0.00 | 0.00 | 0.00 | 51 | 1011.3 |
| 20260509224711 | 92 | 281 | 4.3 | 9.6 | 0.00 | 0.00 | 0.00 | 51 | 1011.1 |
| 20260509223710 | 93 | 235 | 4.3 | 9.6 | 0.00 | 0.00 | 0.00 | 51 | 1011.0 |
| 20260509222709 | 93 | 294 | 4.3 | 9.6 | 0.00 | 0.00 | 0.00 | 51 | 1011.0 |
| 20260509221713 | 93 | 273 | 3.5 | 7.8 | 0.00 | 0.00 | 0.00 | 52 | 1011.0 |
| 20260509220657 | 93 | 274 | 3.5 | 7.8 | 0.00 | 0.00 | 0.00 | 52 | 1011.1 |
| 20260509215657 | 92 | 276 | 3.5 | 7.0 | 0.00 | 0.00 | 0.00 | 54 | 1011.1 |
| 20260509215133 | 92 | 297 | 3.5 | 8.7 | 0.00 | 0.00 | 0.00 | 54 | 1010.9 |
| 20260509213658 | 90 | 322 | 3.5 | 7.8 | 0.00 | 0.00 | 0.00 | 62 | 1010.9 |
| 20260509212657 | 88 | 336 | 5.2 | 12.2 | 0.00 | 0.00 | 0.00 | 64 | 1010.8 |
| 20260509211650 | 87 | 287 | 6.1 | 16.5 | 0.00 | 0.00 | 0.00 | 63 | 1010.9 |
| 20260509210649 | 89 | 300 | 8.7 | 19.1 | 0.00 | 0.00 | 0.00 | 58 | 1010.9 |
| 20260509205647 | 93 | 241 | 6.1 | 11.3 | 0.00 | 0.00 | 0.00 | 50 | 1010.5 |
| 20260509204647 | 94 | 262 | 6.1 | 13.0 | 0.00 | 0.00 | 0.00 | 48 | 1010.4 |
| 20260509203647 | 96 | 223 | 4.3 | 11.3 | 0.00 | 0.00 | 0.00 | 47 | 1010.4 |
| 20260509203136 | 96 | 250 | 5.2 | 14.8 | 0.00 | 0.00 | 0.00 | 45 | 1010.6 |
| 20260509201647 | 96 | 229 | 5.2 | 13.9 | 0.00 | 0.00 | 0.00 | 47 | 1010.7 |
| 20260509200648 | 96 | 271 | 6.1 | 11.3 | 0.00 | 0.00 | 0.00 | 46 | 1010.7 |
| 20260509195649 | 95 | 194 | 4.3 | 13.0 | 0.00 | 0.00 | 0.00 | 48 | 1010.8 |
| 20260509194642 | 95 | 284 | 5.2 | 12.2 | 0.00 | 0.00 | 0.00 | 47 | 1010.9 |
| 20260509193641 | 96 | 240 | 6.1 | 10.4 | 0.00 | 0.00 | 0.00 | 45 | 1011.1 |
| 20260509192642 | 96 | 259 | 4.3 | 13.9 | 0.00 | 0.00 | 0.00 | 45 | 1011.3 |
| 20260509191642 | 96 | 276 | 5.2 | 10.4 | 0.00 | 0.00 | 0.00 | 47 | 1011.3 |
| 20260509190640 | 97 | 269 | 5.2 | 13.9 | 0.00 | 0.00 | 0.00 | 45 | 1011.5 |
| 20260509190115 | 95 | 274 | 4.3 | 10.4 | 0.00 | 0.00 | 0.00 | 48 | 1011.5 |
| 20260509184630 | 94 | 252 | 4.3 | 10.4 | 0.00 | 0.00 | 0.00 | 49 | 1011.7 |
| 20260509183631 | 95 | 208 | 4.3 | 10.4 | 0.00 | 0.00 | 0.00 | 47 | 1011.7 |
| 20260509182629 | 96 | 225 | 7.0 | 14.8 | 0.00 | 0.00 | 0.00 | 47 | 1011.9 |
| 20260509182117 | 95 | 214 | 4.3 | 9.6 | 0.00 | 0.00 | 0.00 | 45 | 1011.9 |